| time (UTC) | temp C | wind direction | speed KPH | gust KPH | rain 1hr cm | rain 24hr cm | rain mn cm | humidity % | barometer mb |
| 20260507042116 | 5 | 44 | 0.0 | 0.0 | 0.00 | 0.00 | 0.00 | 87 | 1013.0 |
| 20260507041644 | 5 | 44 | 0.0 | 0.0 | 0.00 | 0.00 | 0.00 | 87 | 1012.9 |
| 20260507040546 | 5 | 44 | 0.0 | 0.0 | 0.00 | 0.00 | 0.00 | 87 | 1012.9 |
| 20260507040111 | 5 | 44 | 0.0 | 0.0 | 0.00 | 0.00 | 0.00 | 86 | 1012.9 |
| 20260507035545 | 5 | 44 | 0.0 | 0.0 | 0.00 | 0.00 | 0.00 | 86 | 1012.8 |
| 20260507035111 | 5 | 44 | 0.0 | 0.0 | 0.00 | 0.00 | 0.00 | 86 | 1012.7 |
| 20260507034548 | 5 | 44 | 0.0 | 0.0 | 0.00 | 0.00 | 0.00 | 86 | 1012.7 |
| 20260507034126 | 5 | 44 | 0.0 | 0.0 | 0.00 | 0.00 | 0.00 | 86 | 1012.6 |
| 20260507033605 | 5 | 44 | 0.0 | 0.0 | 0.00 | 0.00 | 0.00 | 86 | 1012.5 |
| 20260507033043 | 5 | 44 | 0.0 | 0.0 | 0.00 | 0.00 | 0.00 | 86 | 1012.6 |
| 20260507032609 | 5 | 44 | 0.0 | 0.0 | 0.00 | 0.00 | 0.00 | 86 | 1012.6 |
| 20260507032145 | 5 | 44 | 0.0 | 0.0 | 0.00 | 0.00 | 0.00 | 85 | 1012.6 |
| 20260507031043 | 5 | 44 | 0.0 | 0.0 | 0.00 | 0.00 | 0.00 | 85 | 1012.6 |
| 20260507030612 | 5 | 44 | 0.0 | 0.0 | 0.00 | 0.00 | 0.00 | 85 | 1012.4 |
| 20260507030042 | 5 | 44 | 0.0 | 0.0 | 0.00 | 0.00 | 0.00 | 85 | 1012.4 |
| 20260507025612 | 5 | 44 | 0.0 | 0.0 | 0.00 | 0.00 | 0.00 | 85 | 1012.4 |
| 20260507025052 | 5 | 44 | 0.0 | 0.0 | 0.00 | 0.00 | 0.00 | 85 | 1012.4 |
| 20260507024628 | 5 | 44 | 0.0 | 0.0 | 0.00 | 0.00 | 0.00 | 85 | 1012.4 |
| 20260507024118 | 5 | 44 | 0.0 | 0.0 | 0.00 | 0.00 | 0.00 | 85 | 1012.4 |
| 20260507023558 | 5 | 44 | 0.0 | 0.0 | 0.00 | 0.00 | 0.00 | 85 | 1012.4 |
| 20260507023135 | 5 | 44 | 0.0 | 0.0 | 0.00 | 0.00 | 0.00 | 85 | 1012.3 |
| 20260507022618 | 5 | 44 | 0.0 | 0.0 | 0.00 | 0.00 | 0.00 | 85 | 1012.3 |
| 20260507022053 | 5 | 44 | 0.0 | 0.0 | 0.00 | 0.00 | 0.00 | 85 | 1012.3 |
| 20260507021717 | 6 | 44 | 0.0 | 0.0 | 0.00 | 0.00 | 0.00 | 85 | 1012.2 |
| 20260507020613 | 6 | 44 | 0.0 | 0.0 | 0.00 | 0.00 | 0.00 | 85 | 1012.2 |
| 20260507020132 | 6 | 44 | 0.0 | 0.0 | 0.00 | 0.00 | 0.00 | 85 | 1012.2 |
| 20260507015603 | 6 | 44 | 0.0 | 0.0 | 0.00 | 0.00 | 0.00 | 85 | 1012.2 |
| 20260507015131 | 6 | 44 | 0.0 | 0.0 | 0.00 | 0.00 | 0.00 | 85 | 1012.1 |
| 20260507014126 | 6 | 44 | 0.0 | 0.0 | 0.00 | 0.00 | 0.00 | 85 | 1012.0 |
| 20260507013119 | 6 | 44 | 0.0 | 3.2 | 0.00 | 0.00 | 0.00 | 85 | 1012.0 |
| 20260507012735 | 6 | 29 | 0.0 | 3.2 | 0.00 | 0.00 | 0.00 | 85 | 1012.0 |
| 20260507011150 | 6 | 26 | 0.0 | 0.0 | 0.00 | 0.00 | 0.00 | 85 | 1012.1 |
| 20260507010135 | 6 | 26 | 0.0 | 0.0 | 0.00 | 0.00 | 0.00 | 85 | 1012.0 |
| 20260507005605 | 6 | 26 | 0.0 | 0.0 | 0.00 | 0.00 | 0.00 | 85 | 1012.0 |
| 20260507005045 | 6 | 27 | 0.0 | 3.2 | 0.00 | 0.00 | 0.00 | 85 | 1012.0 |
| 20260507004618 | 6 | 27 | 0.0 | 3.2 | 0.00 | 0.00 | 0.00 | 85 | 1012.0 |
| 20260507004054 | 6 | 20 | 0.0 | 0.0 | 0.00 | 0.00 | 0.00 | 85 | 1012.0 |
| 20260507003621 | 6 | 20 | 0.0 | 0.0 | 0.00 | 0.00 | 0.00 | 85 | 1012.0 |
| 20260507002613 | 6 | 20 | 0.0 | 1.6 | 0.00 | 0.00 | 0.00 | 85 | 1012.0 |
| 20260507002049 | 6 | 20 | 0.0 | 0.0 | 0.00 | 0.00 | 0.00 | 85 | 1011.9 |
| 20260507001621 | 6 | 22 | 0.0 | 0.0 | 0.00 | 0.00 | 0.00 | 85 | 1011.9 |
| 20260507001050 | 6 | 20 | 0.0 | 0.0 | 0.00 | 0.00 | 0.00 | 84 | 1011.8 |
| 20260507000624 | 6 | 20 | 0.0 | 0.0 | 0.00 | 0.00 | 0.00 | 84 | 1011.9 |
| 20260506235616 | 6 | 20 | 0.0 | 0.0 | 0.00 | 0.00 | 0.00 | 84 | 1011.9 |
| 20260506235052 | 6 | 22 | 0.0 | 0.0 | 0.00 | 0.00 | 0.00 | 83 | 1012.0 |
| 20260506234624 | 6 | 22 | 0.0 | 0.0 | 0.00 | 0.00 | 0.00 | 83 | 1012.0 |
| 20260506234104 | 6 | 22 | 0.0 | 0.0 | 0.00 | 0.00 | 0.00 | 83 | 1012.0 |
| 20260506233632 | 6 | 20 | 0.0 | 0.0 | 0.00 | 0.00 | 0.00 | 83 | 1012.1 |
| 20260506233158 | 6 | 22 | 0.0 | 0.0 | 0.00 | 0.00 | 0.00 | 83 | 1012.0 |
| 20260506232044 | 6 | 22 | 0.0 | 0.0 | 0.00 | 0.00 | 0.00 | 82 | 1011.9 |
| 20260506231613 | 6 | 20 | 0.0 | 0.0 | 0.00 | 0.00 | 0.00 | 82 | 1011.9 |
| 20260506231050 | 6 | 20 | 0.0 | 0.0 | 0.00 | 0.00 | 0.00 | 82 | 1011.9 |
| 20260506230621 | 6 | 20 | 0.0 | 0.0 | 0.00 | 0.00 | 0.00 | 82 | 1011.9 |
| 20260506225613 | 6 | 20 | 0.0 | 0.0 | 0.00 | 0.00 | 0.00 | 82 | 1011.9 |
| 20260506225047 | 6 | 20 | 0.0 | 0.0 | 0.00 | 0.00 | 0.00 | 81 | 1011.9 |
| 20260506224615 | 7 | 20 | 0.0 | 0.0 | 0.00 | 0.00 | 0.00 | 81 | 1011.8 |
| 20260506224047 | 7 | 22 | 0.0 | 0.0 | 0.00 | 0.00 | 0.00 | 82 | 1011.9 |
| 20260506223617 | 7 | 22 | 0.0 | 0.0 | 0.00 | 0.00 | 0.00 | 82 | 1011.8 |
| 20260506223101 | 7 | 20 | 0.0 | 0.0 | 0.00 | 0.00 | 0.00 | 82 | 1011.8 |
| 20260506222633 | 7 | 22 | 0.0 | 0.0 | 0.00 | 0.00 | 0.00 | 82 | 1011.8 |
| 20260506222055 | 7 | 22 | 0.0 | 0.0 | 0.00 | 0.00 | 0.00 | 82 | 1011.7 |
| 20260506221624 | 7 | 20 | 0.0 | 1.6 | 0.00 | 0.00 | 0.00 | 82 | 1011.7 |
| 20260506221107 | 7 | 20 | 0.0 | 1.6 | 0.00 | 0.00 | 0.00 | 82 | 1011.7 |
| 20260506220636 | 7 | 37 | 0.0 | 4.8 | 0.00 | 0.00 | 0.00 | 82 | 1011.7 |
| 20260506220109 | 7 | 37 | 0.0 | 4.8 | 0.00 | 0.00 | 0.00 | 82 | 1011.7 |
| 20260506215639 | 7 | 46 | 0.0 | 3.2 | 0.00 | 0.00 | 0.00 | 82 | 1011.7 |
| 20260506215114 | 7 | 46 | 0.0 | 0.0 | 0.00 | 0.00 | 0.00 | 82 | 1011.8 |
| 20260506214634 | 7 | 57 | 0.0 | 1.6 | 0.00 | 0.00 | 0.00 | 82 | 1011.6 |
| 20260506214111 | 7 | 57 | 0.0 | 1.6 | 0.00 | 0.00 | 0.00 | 82 | 1011.6 |
| 20260506213548 | 7 | 41 | 0.0 | 4.8 | 0.00 | 0.00 | 0.00 | 81 | 1011.6 |
| 20260506213115 | 7 | 33 | 0.0 | 4.8 | 0.00 | 0.00 | 0.00 | 81 | 1011.6 |
| 20260506212103 | 7 | 29 | 0.0 | 0.0 | 0.00 | 0.00 | 0.00 | 81 | 1011.5 |
| 20260506211631 | 7 | 29 | 0.0 | 3.2 | 0.00 | 0.00 | 0.00 | 81 | 1011.5 |
| 20260506211053 | 8 | 29 | 0.0 | 3.2 | 0.00 | 0.00 | 0.00 | 81 | 1011.4 |
| 20260506210615 | 8 | 27 | 0.0 | 1.6 | 0.00 | 0.00 | 0.00 | 81 | 1011.5 |
| 20260506210147 | 8 | 27 | 0.0 | 1.6 | 0.00 | 0.00 | 0.00 | 81 | 1011.4 |
| 20260506205126 | 8 | 22 | 0.0 | 3.2 | 0.00 | 0.00 | 0.00 | 80 | 1011.5 |
| 20260506204645 | 8 | 19 | 0.0 | 4.8 | 0.00 | 0.00 | 0.00 | 80 | 1011.5 |
| 20260506203537 | 8 | 5 | 0.0 | 3.2 | 0.00 | 0.00 | 0.00 | 80 | 1011.5 |
| 20260506203205 | 8 | 0 | 0.0 | 3.2 | 0.00 | 0.00 | 0.00 | 79 | 1011.5 |
| 20260506202205 | 8 | 46 | 0.0 | 6.4 | 0.00 | 0.00 | 0.00 | 79 | 1011.4 |
| 20260506201123 | 8 | 26 | 0.0 | 6.4 | 0.00 | 0.00 | 0.00 | 78 | 1011.4 |
| 20260506200749 | 8 | 16 | 0.0 | 6.4 | 0.00 | 0.00 | 0.00 | 78 | 1011.4 |
| 20260506195218 | 9 | 19 | 0.0 | 4.8 | 0.00 | 0.00 | 0.00 | 77 | 1011.2 |
| 20260506194051 | 9 | 10 | 0.0 | 6.4 | 0.00 | 0.00 | 0.00 | 76 | 1011.1 |
| 20260506193613 | 9 | 27 | 0.0 | 6.4 | 0.00 | 0.00 | 0.00 | 75 | 1011.1 |
| 20260506193130 | 9 | 36 | 0.0 | 3.2 | 0.00 | 0.00 | 0.00 | 75 | 1010.9 |
| 20260506192218 | 10 | 27 | 0.0 | 6.4 | 0.00 | 0.00 | 0.00 | 74 | 1010.9 |
| 20260506191651 | 10 | 13 | 0.0 | 8.0 | 0.00 | 0.00 | 0.00 | 74 | 1010.9 |
| 20260506191210 | 10 | 37 | 1.6 | 8.0 | 0.00 | 0.00 | 0.00 | 73 | 1010.8 |
| 20260506190628 | 10 | 53 | 1.6 | 6.4 | 0.00 | 0.00 | 0.00 | 73 | 1010.8 |
| 20260506190151 | 10 | 338 | 0.0 | 8.0 | 0.00 | 0.00 | 0.00 | 72 | 1010.7 |
| 20260506185712 | 10 | 349 | 1.6 | 8.0 | 0.00 | 0.00 | 0.00 | 72 | 1010.6 |
| 20260506184643 | 11 | 60 | 0.0 | 11.3 | 0.00 | 0.00 | 0.00 | 71 | 1010.5 |
| 20260506184200 | 11 | 359 | 0.0 | 9.7 | 0.00 | 0.00 | 0.00 | 71 | 1010.4 |
| 20260506183632 | 11 | 50 | 0.0 | 6.4 | 0.00 | 0.00 | 0.00 | 70 | 1010.3 |
| 20260506183151 | 11 | 322 | 1.6 | 9.7 | 0.00 | 0.00 | 0.00 | 71 | 1010.2 |
| 20260506182717 | 11 | 10 | 1.6 | 9.7 | 0.00 | 0.00 | 0.00 | 71 | 1010.3 |
| 20260506182137 | 11 | 37 | 0.0 | 16.1 | 0.00 | 0.00 | 0.00 | 70 | 1010.2 |
| 20260506181700 | 12 | 8 | 1.6 | 16.1 | 0.00 | 0.00 | 0.00 | 69 | 1010.2 |
| 20260506181219 | 12 | 356 | 3.2 | 8.0 | 0.00 | 0.00 | 0.00 | 69 | 1010.1 |
| 20260506180733 | 12 | 46 | 0.0 | 8.0 | 0.00 | 0.00 | 0.00 | 70 | 1010.0 |
| 20260506175656 | 12 | 108 | 0.0 | 11.3 | 0.00 | 0.00 | 0.00 | 70 | 1010.1 |
| 20260506175131 | 12 | 9 | 0.0 | 11.3 | 0.00 | 0.00 | 0.00 | 69 | 1010.0 |
| 20260506174652 | 12 | 0 | 0.0 | 9.7 | 0.00 | 0.00 | 0.00 | 69 | 1009.9 |
| 20260506174212 | 12 | 32 | 0.0 | 8.0 | 0.00 | 0.00 | 0.00 | 69 | 1009.9 |
| 20260506173639 | 12 | 24 | 0.0 | 8.0 | 0.00 | 0.00 | 0.00 | 69 | 1009.9 |
| 20260506173159 | 12 | 337 | 0.0 | 9.7 | 0.00 | 0.00 | 0.00 | 69 | 1009.9 |
| 20260506172629 | 12 | 51 | 1.6 | 9.7 | 0.00 | 0.00 | 0.00 | 68 | 1009.9 |
| 20260506172238 | 12 | 16 | 1.6 | 9.7 | 0.00 | 0.00 | 0.00 | 67 | 1009.8 |
| 20260506171848 | 12 | 16 | 0.0 | 11.3 | 0.00 | 0.00 | 0.00 | 66 | 1009.7 |
| 20260506170907 | 13 | 353 | 1.6 | 14.5 | 0.00 | 0.00 | 0.00 | 64 | 1009.7 |
| 20260506165337 | 13 | 125 | 4.8 | 16.1 | 0.00 | 0.00 | 0.00 | 62 | 1009.7 |
| 20260506163621 | 13 | 305 | 0.0 | 20.9 | 0.00 | 0.00 | 0.00 | 62 | 1009.6 |
| 20260506163142 | 13 | 331 | 1.6 | 20.9 | 0.00 | 0.00 | 0.00 | 61 | 1009.7 |
| 20260506162614 | 13 | 36 | 1.6 | 11.3 | 0.00 | 0.00 | 0.00 | 62 | 1009.5 |
| 20260506162132 | 14 | 0 | 3.2 | 11.3 | 0.00 | 0.00 | 0.00 | 61 | 1009.5 |
| 20260506161656 | 15 | 75 | 1.6 | 17.7 | 0.00 | 0.00 | 0.00 | 61 | 1009.5 |
| 20260506160617 | 15 | 12 | 1.6 | 17.7 | 0.00 | 0.00 | 0.00 | 61 | 1009.5 |
| 20260506160133 | 15 | 23 | 1.6 | 14.5 | 0.00 | 0.00 | 0.00 | 62 | 1009.5 |
| 20260506155558 | 15 | 5 | 4.8 | 14.5 | 0.00 | 0.00 | 0.00 | 61 | 1009.4 |
| 20260506155121 | 15 | 342 | 1.6 | 14.5 | 0.00 | 0.00 | 0.00 | 63 | 1009.4 |
| 20260506154641 | 15 | 346 | 1.6 | 14.5 | 0.00 | 0.00 | 0.00 | 62 | 1009.5 |
| 20260506154203 | 15 | 358 | 3.2 | 14.5 | 0.00 | 0.00 | 0.00 | 63 | 1009.6 |
| 20260506153127 | 15 | 94 | 1.6 | 14.5 | 0.00 | 0.00 | 0.00 | 63 | 1009.5 |
| 20260506152551 | 15 | 282 | 3.2 | 14.5 | 0.00 | 0.00 | 0.00 | 63 | 1009.5 |
| 20260506152112 | 15 | 355 | 3.2 | 14.5 | 0.00 | 0.00 | 0.00 | 63 | 1009.4 |
| 20260506151626 | 15 | 127 | 1.6 | 11.3 | 0.00 | 0.00 | 0.00 | 61 | 1009.4 |
| 20260506151047 | 16 | 205 | 3.2 | 16.1 | 0.00 | 0.00 | 0.00 | 62 | 1009.5 |
| 20260506150614 | 16 | 27 | 0.0 | 16.1 | 0.00 | 0.00 | 0.00 | 63 | 1009.4 |
| 20260506150136 | 15 | 23 | 3.2 | 20.9 | 0.00 | 0.00 | 0.00 | 63 | 1009.4 |
| 20260506145558 | 15 | 355 | 1.6 | 20.9 | 0.00 | 0.00 | 0.00 | 63 | 1009.4 |
| 20260506145123 | 15 | 5 | 6.4 | 14.5 | 0.00 | 0.00 | 0.00 | 63 | 1009.2 |
| 20260506144551 | 15 | 5 | 0.0 | 11.3 | 0.00 | 0.00 | 0.00 | 65 | 1009.3 |
| 20260506144116 | 15 | 289 | 0.0 | 11.3 | 0.00 | 0.00 | 0.00 | 65 | 1009.3 |
| 20260506143543 | 15 | 342 | 3.2 | 11.3 | 0.00 | 0.00 | 0.00 | 65 | 1009.3 |
| 20260506143203 | 15 | 342 | 1.6 | 9.7 | 0.00 | 0.00 | 0.00 | 65 | 1009.3 |
| 20260506142139 | 14 | 346 | 0.0 | 16.1 | 0.00 | 0.00 | 0.00 | 66 | 1009.3 |
| 20260506141659 | 14 | 36 | 1.6 | 19.3 | 0.00 | 0.00 | 0.00 | 66 | 1009.3 |
| 20260506141309 | 15 | 348 | 1.6 | 19.3 | 0.00 | 0.00 | 0.00 | 65 | 1009.3 |
| 20260506135543 | 15 | 74 | 3.2 | 22.5 | 0.00 | 0.00 | 0.00 | 65 | 1009.2 |
| 20260506135101 | 15 | 229 | 3.2 | 22.5 | 0.00 | 0.00 | 0.00 | 65 | 1009.3 |
| 20260506134529 | 15 | 5 | 3.2 | 11.3 | 0.00 | 0.00 | 0.00 | 65 | 1009.2 |
| 20260506134146 | 15 | 48 | 1.6 | 16.1 | 0.00 | 0.00 | 0.00 | 66 | 1009.2 |
| 20260506133103 | 15 | 6 | 4.8 | 20.9 | 0.00 | 0.00 | 0.00 | 65 | 1009.2 |
| 20260506132713 | 15 | 22 | 3.2 | 16.1 | 0.00 | 0.00 | 0.00 | 65 | 1009.2 |
| 20260506131541 | 15 | 356 | 1.6 | 16.1 | 0.00 | 0.00 | 0.00 | 65 | 1009.1 |
| 20260506131155 | 15 | 348 | 3.2 | 17.7 | 0.00 | 0.00 | 0.00 | 64 | 1009.1 |
| 20260506130054 | 15 | 348 | 3.2 | 17.7 | 0.00 | 0.00 | 0.00 | 64 | 1009.1 |
| 20260506125548 | 15 | 27 | 3.2 | 11.3 | 0.00 | 0.00 | 0.00 | 64 | 1009.0 |
| 20260506125108 | 15 | 103 | 0.0 | 8.0 | 0.00 | 0.00 | 0.00 | 63 | 1009.1 |
| 20260506124613 | 15 | 0 | 1.6 | 11.3 | 0.00 | 0.00 | 0.00 | 62 | 1009.1 |
| 20260506124219 | 15 | 339 | 1.6 | 11.3 | 0.00 | 0.00 | 0.00 | 62 | 1009.1 |
| 20260506123121 | 15 | 27 | 3.2 | 16.1 | 0.00 | 0.00 | 0.00 | 60 | 1008.9 |
| 20260506122539 | 16 | 57 | 1.6 | 16.1 | 0.00 | 0.00 | 0.00 | 58 | 1009.1 |
| 20260506122100 | 16 | 13 | 1.6 | 16.1 | 0.00 | 0.00 | 0.00 | 58 | 1009.0 |
| 20260506121614 | 16 | 99 | 3.2 | 16.1 | 0.00 | 0.00 | 0.00 | 58 | 1008.9 |
| 20260506121041 | 16 | 228 | 1.6 | 8.0 | 0.00 | 0.00 | 0.00 | 59 | 1008.8 |
| 20260506120610 | 16 | 96 | 1.6 | 11.3 | 0.00 | 0.00 | 0.00 | 59 | 1008.8 |
| 20260506120027 | 16 | 180 | 3.2 | 14.5 | 0.00 | 0.00 | 0.00 | 59 | 1008.7 |
| 20260506115555 | 16 | 30 | 4.8 | 14.5 | 0.00 | 0.00 | 0.00 | 59 | 1008.7 |
| 20260506115029 | 16 | 20 | 1.6 | 9.7 | 0.00 | 0.00 | 0.00 | 60 | 1008.8 |
| 20260506114552 | 15 | 168 | 3.2 | 11.3 | 0.00 | 0.00 | 0.00 | 59 | 1008.7 |
| 20260506114045 | 16 | 39 | 3.2 | 11.3 | 0.00 | 0.00 | 0.00 | 59 | 1008.7 |
| 20260506113600 | 16 | 346 | 1.6 | 19.3 | 0.00 | 0.00 | 0.00 | 59 | 1008.7 |
| 20260506113121 | 16 | 50 | 3.2 | 19.3 | 0.00 | 0.00 | 0.00 | 60 | 1008.7 |
| 20260506112548 | 16 | 3 | 1.6 | 11.3 | 0.00 | 0.00 | 0.00 | 60 | 1008.7 |
| 20260506112111 | 16 | 34 | 0.0 | 11.3 | 0.00 | 0.00 | 0.00 | 60 | 1008.7 |
| 20260506111530 | 15 | 215 | 1.6 | 11.3 | 0.00 | 0.00 | 0.00 | 60 | 1008.8 |
| 20260506111055 | 15 | 341 | 1.6 | 8.0 | 0.00 | 0.00 | 0.00 | 60 | 1008.7 |
| 20260506110528 | 15 | 153 | 1.6 | 8.0 | 0.00 | 0.00 | 0.00 | 58 | 1008.6 |
| 20260506110044 | 16 | 181 | 3.2 | 8.0 | 0.00 | 0.00 | 0.00 | 57 | 1008.7 |
| 20260506105602 | 15 | 23 | 1.6 | 8.0 | 0.00 | 0.00 | 0.00 | 61 | 1008.6 |
| 20260506105116 | 15 | 37 | 3.2 | 8.0 | 0.00 | 0.00 | 0.00 | 62 | 1008.6 |
| 20260506104043 | 14 | 95 | 0.0 | 11.3 | 0.00 | 0.00 | 0.00 | 61 | 1008.7 |
| 20260506103613 | 14 | 187 | 3.2 | 11.3 | 0.00 | 0.00 | 0.00 | 58 | 1008.7 |
| 20260506103034 | 14 | 204 | 3.2 | 9.7 | 0.00 | 0.00 | 0.00 | 57 | 1008.6 |
| 20260506102643 | 14 | 170 | 1.6 | 9.7 | 0.00 | 0.00 | 0.00 | 57 | 1008.6 |
| 20260506101609 | 13 | 267 | 1.6 | 8.0 | 0.00 | 0.00 | 0.00 | 61 | 1008.7 |
| 20260506101032 | 13 | 284 | 0.0 | 8.0 | 0.00 | 0.00 | 0.00 | 61 | 1008.6 |
| 20260506100559 | 13 | 339 | 0.0 | 8.0 | 0.00 | 0.00 | 0.00 | 62 | 1008.5 |
| 20260506100016 | 13 | 262 | 1.6 | 8.0 | 0.00 | 0.00 | 0.00 | 62 | 1008.5 |
| 20260506095627 | 13 | 200 | 1.6 | 8.0 | 0.00 | 0.00 | 0.00 | 62 | 1008.6 |
| 20260506095256 | 13 | 214 | 0.0 | 6.4 | 0.00 | 0.00 | 0.00 | 62 | 1008.5 |
| 20260506093614 | 13 | 32 | 0.0 | 6.4 | 0.00 | 0.00 | 0.00 | 63 | 1008.5 |
| 20260506093030 | 13 | 109 | 0.0 | 3.2 | 0.00 | 0.00 | 0.00 | 63 | 1008.5 |
| 20260506092552 | 13 | 88 | 0.0 | 9.7 | 0.00 | 0.00 | 0.00 | 64 | 1008.5 |
| 20260506092023 | 13 | 81 | 0.0 | 9.7 | 0.00 | 0.00 | 0.00 | 64 | 1008.5 |
| 20260506091534 | 13 | 61 | 0.0 | 8.0 | 0.00 | 0.00 | 0.00 | 66 | 1008.5 |
| 20260506091145 | 13 | 256 | 0.0 | 8.0 | 0.00 | 0.00 | 0.00 | 65 | 1008.5 |
| 20260506085631 | 13 | 239 | 0.0 | 4.8 | 0.00 | 0.00 | 0.00 | 67 | 1008.5 |
| 20260506084608 | 12 | 259 | 1.6 | 4.8 | 0.00 | 0.00 | 0.00 | 66 | 1008.5 |
| 20260506084033 | 12 | 13 | 0.0 | 4.8 | 0.00 | 0.00 | 0.00 | 66 | 1008.3 |
| 20260506083602 | 12 | 328 | 0.0 | 4.8 | 0.00 | 0.00 | 0.00 | 66 | 1008.5 |
| 20260506083124 | 12 | 325 | 0.0 | 1.6 | 0.00 | 0.00 | 0.00 | 67 | 1008.5 |
| 20260506082057 | 12 | 339 | 1.6 | 9.7 | 0.00 | 0.00 | 0.00 | 65 | 1008.4 |
| 20260506081526 | 12 | 180 | 0.0 | 9.7 | 0.00 | 0.00 | 0.00 | 65 | 1008.3 |
| 20260506081044 | 12 | 183 | 0.0 | 8.0 | 0.00 | 0.00 | 0.00 | 66 | 1008.3 |
| 20260506080609 | 12 | 8 | 0.0 | 8.0 | 0.00 | 0.00 | 0.00 | 67 | 1008.2 |
| 20260506073152 | 12 | 207 | 0.0 | 8.0 | 0.00 | 0.00 | 0.00 | 72 | 1008.0 |
| 20260506071541 | 11 | 144 | 0.0 | 3.2 | 0.00 | 0.00 | 0.00 | 76 | 1008.0 |
| 20260506071027 | 11 | 352 | 0.0 | 3.2 | 0.00 | 0.00 | 0.00 | 78 | 1008.0 |
| 20260506070559 | 11 | 358 | 0.0 | 4.8 | 0.00 | 0.00 | 0.00 | 79 | 1007.9 |
| 20260506061534 | 10 | 85 | 0.0 | 6.4 | 0.00 | 0.00 | 0.00 | 83 | 1007.8 |
| 20260506061106 | 10 | 86 | 0.0 | 6.4 | 0.00 | 0.00 | 0.00 | 84 | 1007.8 |
| 20260506060544 | 10 | 36 | 0.0 | 1.6 | 0.00 | 0.00 | 0.00 | 85 | 1007.8 |
| 20260506060205 | 10 | 34 | 0.0 | 4.8 | 0.00 | 0.00 | 0.00 | 85 | 1007.8 |
| 20260506051038 | 8 | 33 | 0.0 | 3.2 | 0.00 | 0.00 | 0.00 | 88 | 1007.7 |
| 20260506050604 | 8 | 27 | 0.0 | 1.6 | 0.00 | 0.00 | 0.00 | 88 | 1007.7 |
| 20260506045110 | 8 | 3 | 0.0 | 1.6 | 0.00 | 0.00 | 0.00 | 88 | 1007.7 |
| 20260506044100 | 8 | 2 | 0.0 | 3.2 | 0.00 | 0.00 | 0.00 | 88 | 1007.8 |
| 20260506043533 | 8 | 44 | 0.0 | 1.6 | 0.00 | 0.00 | 0.00 | 87 | 1007.9 |
| 20260506043010 | 7 | 24 | 0.0 | 1.6 | 0.00 | 0.00 | 0.00 | 87 | 1007.8 |
| 20260506042634 | 8 | 26 | 0.0 | 1.6 | 0.00 | 0.00 | 0.00 | 87 | 1007.8 |